[[{"header":{"parameterUnit":"m.s-1","parameterCategory":1,"la1":30.2991,"la2":30.254,"lo1":-89.0895,"lo2":-89.0444,"dy":0.0017,"dx":0.0017,"nx":28,"ny":28,"refTime":"2024-04-19T21:00:00:Z","depth":0,"parameterNumber":2,"parameterNumberName":"U-component_of_WINDS"},"data":[0,0,0,0,0,0,0,0,0,0,0,0,0,0,0,0,0,0,0,0,0,0,0,0,0,0,0,0,0,0,0,0,0,0,0,0,0,0,0,0,0,0,0,0,0,0,0,0,0,0,0,0,0,0,0,0,0,0,0.2952,0.2953,0,0.3093,0.3095,0.3097,0.3129,0.3128,0.3127,0.3126,0.3276,0.328,0.3285,0,0,0,0,0,0,0,0,0,0,0,0,0,0.2712,0.2716,0.2952,0.2953,0.2955,0.3093,0.3095,0.3097,0.3129,0.3128,0.3127,0.3126,0.3274,0.328,0.3286,0,0,0,0,0,0,0,0,0,0,0,0,0,0.2831,0.2718,0.2951,0.2988,0.2992,0.3093,0.3095,0.3098,0.313,0.3128,0.3127,0.3125,0.3272,0.3279,0.3286,0.3362,0,0,0.3309,0.3312,0,0,0,0,0,0,0,0,0.2824,0.284,0.2981,0.2985,0.2991,0.3092,0.3065,0.3186,0.313,0.3078,0.3126,0.3125,0.3216,0.3228,0.3258,0.3369,0.3375,0.331,0.3314,0.3317,0.3319,0,0,0,0,0,0,0,0.2816,0.2834,0.3008,0.2983,0.2989,0.2998,0.3013,0.3088,0.3154,0.3082,0.3085,0.3101,0.3219,0.3251,0.3262,0.3377,0.3309,0.3316,0.332,0.3323,0.3556,0.3558,0,0,0,0,0,0,0.2801,0.2827,0.3003,0.3012,0.2902,0.3004,0.3021,0.3061,0.3153,0.3165,0.3102,0.3102,0.3239,0.3253,0.3267,0.3361,0.3317,0.3324,0.3328,0.3555,0.3557,0.3559,0,0,0,0,0,0,0.2796,0.2816,0.2998,0.292,0.2944,0.3009,0.3054,0.3065,0.3097,0.3168,0.318,0.3123,0.3238,0.3257,0.3337,0.3366,0.3327,0.3334,0.3552,0.3555,0.3558,0.3549,0,0,0,0,0,0,0.2789,0.2814,0.2843,0.2921,0.2948,0.3065,0.3056,0.3069,0.3109,0.311,0.319,0.3202,0.3238,0.3326,0.3345,0.3376,0.334,0.355,0.3554,0.3557,0.3547,0.3551,0.3555,0,0,0,0,0,0.278,0.2836,0.2844,0.2865,0.2985,0.3066,0.3082,0.3121,0.3111,0.3141,0.3186,0.32,0.336,0.3334,0.3355,0.3389,0.3549,0.3553,0.3557,0.3545,0.355,0.3554,0,0,0,0,0,0,0.2762,0.2847,0.2857,0.2939,0.2995,0.3072,0.311,0.3125,0.3186,0.3185,0.3232,0.325,0.3328,0.3367,0.3337,0.3466,0.3454,0.3463,0.3438,0.3444,0.3447,0.3437,0.3346,0,0,0,0,0,0.2767,0.2825,0.2896,0.2962,0.299,0.3045,0.3082,0.3107,0.3167,0.3192,0.3243,0.3302,0.3366,0.3407,0.3469,0.3552,0.3571,0.3586,0.359,0.3592,0.3599,0.3646,0.3654,0.3572,0.3572,0.3572,0,0,0.2779,0.2833,0.2867,0.296,0.3006,0.3066,0.3065,0.3128,0.3173,0.3202,0.3281,0.332,0.3389,0.3471,0.351,0.3506,0.3626,0.3597,0.3599,0.3605,0.3651,0.3659,0.3666,0.3575,0.3574,0.3574,0,0,0.2832,0.2878,0.2938,0.2983,0.3052,0.3089,0.3103,0.3177,0.3204,0.3283,0.3305,0.336,0.3469,0.3517,0.3555,0.3624,0.3639,0.3643,0.3663,0.3708,0.3715,0.3721,0.3745,0.3754,0.365,0.365,0.365,0,0.2839,0.2928,0.2967,0.3029,0.3069,0.3095,0.3157,0.32,0.3286,0.3314,0.3307,0.3443,0.3492,0.3585,0.3602,0.3632,0.365,0.3635,0.371,0.3717,0.3723,0.3747,0.3756,0.365,0.365,0.365,0.365,0,0.2933,0.2995,0.3035,0.3116,0.3161,0.3222,0.3271,0.3312,0.3332,0.3369,0.345,0.3508,0.3583,0.3607,0.3629,0.3704,0.3699,0.3701,0.369,0.373,0.3754,0.3763,0.365,0.365,0.365,0.365,0,0,0.298,0.308,0.3094,0.3131,0.3208,0.3257,0.3319,0.3391,0.3425,0.3483,0.3537,0.3628,0.363,0.3673,0.3701,0.374,0.3791,0.3737,0.374,0.3745,0.3877,0.3875,0.3885,0.38,0.3802,0.3804,0.3871,0,0.3042,0.3153,0.3189,0.3282,0.334,0.3365,0.3419,0.3473,0.3509,0.3563,0.3604,0.3667,0.3665,0.3691,0.3731,0.3776,0.3818,0.3771,0.3852,0.3854,0.3834,0.3898,0.3896,0.3957,0.388,0.3882,0.3883,0,0.313,0.3188,0.3286,0.3355,0.3381,0.3429,0.3497,0.3548,0.361,0.3633,0.3681,0.3705,0.3772,0.3755,0.3848,0.3816,0.3851,0.3878,0.3881,0.3891,0.3872,0.391,0.3978,0.3987,0.3898,0.3897,0.3896,0,0.3155,0.3257,0.3329,0.336,0.3442,0.3475,0.3511,0.3571,0.3611,0.3671,0.3697,0.3764,0.3801,0.3853,0.3894,0.3878,0.3983,0.3971,0.4006,0.4005,0.4028,0.4026,0.4103,0.4049,0.4049,0.4049,0.4048,0,0.3221,0.328,0.3341,0.3385,0.3452,0.3492,0.3558,0.3596,0.3648,0.3701,0.3727,0.3776,0.3827,0.3883,0.3916,0.3988,0.4005,0.4026,0.4034,0.4024,0.4022,0.4049,0.4046,0.4051,0.405,0.405,0.405,0,0.326,0.3303,0.3383,0.3453,0.3473,0.3519,0.358,0.3624,0.366,0.3726,0.3744,0.3802,0.3869,0.3914,0.4001,0.4023,0.4102,0.4109,0.408,0.4085,0.4117,0.4113,0.4215,0.423,0.4165,0.4165,0.4166,0,0.33,0.3346,0.3421,0.3457,0.3492,0.3551,0.3591,0.3633,0.3674,0.3747,0.3782,0.385,0.3908,0.4014,0.4064,0.413,0.414,0.417,0.415,0.4138,0.4141,0.4138,0.4143,0.4174,0.4175,0.4175,0.4175,0,0.3366,0.3385,0.3441,0.3505,0.3552,0.3605,0.3658,0.3687,0.3737,0.3783,0.385,0.3894,0.3981,0.4049,0.412,0.4159,0.4176,0.4181,0.4193,0.4183,0.4165,0.4176,0.409,0.4179,0.4178,0.4178,0.4178,0.4178,0.3408,0.3449,0.3508,0.357,0.3614,0.3662,0.3707,0.3747,0.3804,0.3877,0.3899,0.3969,0.4029,0.4126,0.4165,0.4222,0.4219,0.4236,0.424,0.4244,0.4244,0.4155,0.4235,0.4235,0.4235,0.4235,0.4234,0,0.3476,0.3514,0.357,0.3643,0.3692,0.3701,0.376,0.3801,0.3862,0.3915,0.397,0.4048,0.4114,0.4168,0.4236,0.4271,0.428,0.4287,0.4286,0.4294,0.4242,0.4226,0.4278,0.4278,0.4278,0.4278,0.4278,0.4278,0.3517,0.3587,0.3612,0.3705,0.3744,0.3812,0.3844,0.3889,0.3932,0.4017,0.4071,0.4105,0.416,0.4231,0.4292,0.4307,0.4331,0.4336,0.4352,0.4303,0.4298,0.4293,0.4278,0.4341,0.4341,0.44,0.44,0.4401]},{"header":{"parameterUnit":"m.s-1","parameterCategory":1,"la1":30.2991,"la2":30.254,"lo1":-89.0895,"lo2":-89.0444,"dy":0.0017,"dx":0.0017,"nx":28,"ny":28,"refTime":"2024-04-19T21:00:00:Z","depth":0,"parameterNumber":3,"parameterNumberName":"V-component_of_WINDS"},"data":[0,0,0,0,0,0,0,0,0,0,0,0,0,0,0,0,0,0,0,0,0,0,0,0,0,0,0,0,0,0,0,0,0,0,0,0,0,0,0,0,0,0,0,0,0,0,0,0,0,0,0,0,0,0,0,0,0,0,1.9762,1.9763,0,1.9772,1.9773,1.9773,1.9744,1.9743,1.9742,1.9741,1.9749,1.975,1.9751,0,0,0,0,0,0,0,0,0,0,0,0,0,1.9716,1.9717,1.9762,1.9763,1.9763,1.9772,1.9773,1.9773,1.9744,1.9743,1.9742,1.974,1.9748,1.975,1.9751,0,0,0,0,0,0,0,0,0,0,0,0,0,1.9732,1.9717,1.9762,1.9749,1.9748,1.9772,1.9773,1.9773,1.9744,1.9743,1.9741,1.974,1.9748,1.9749,1.9751,1.9787,0,0,1.9756,1.9756,0,0,0,0,0,0,0,0,1.9731,1.9734,1.9751,1.975,1.9749,1.9755,1.9759,1.9778,1.9744,1.9746,1.9741,1.9739,1.9752,1.9753,1.9758,1.9788,1.9788,1.9756,1.9757,1.9758,1.9758,0,0,0,0,0,0,0,1.973,1.9733,1.9766,1.9751,1.975,1.9742,1.9743,1.9762,1.9756,1.9745,1.9743,1.9745,1.9751,1.9756,1.9758,1.9788,1.9756,1.9757,1.9758,1.9759,1.9849,1.985,0,0,0,0,0,0,1.9731,1.9733,1.9766,1.9767,1.9737,1.9744,1.9745,1.9755,1.9756,1.9755,1.9746,1.9744,1.9754,1.9756,1.9758,1.9801,1.9758,1.9759,1.976,1.9848,1.9849,1.9851,0,0,0,0,0,0,1.973,1.9734,1.9766,1.9749,1.9752,1.9747,1.9757,1.9756,1.9761,1.9756,1.9755,1.9753,1.9753,1.9756,1.9781,1.9801,1.976,1.9761,1.9846,1.9848,1.985,1.9887,0,0,0,0,0,0,1.9729,1.9734,1.9748,1.975,1.9753,1.9789,1.9759,1.9757,1.9764,1.9761,1.9762,1.9761,1.9752,1.9778,1.9782,1.9802,1.9762,1.9844,1.9847,1.9849,1.9884,1.989,1.9896,0,0,0,0,0,1.9727,1.9758,1.9749,1.9753,1.9771,1.979,1.9792,1.9782,1.9766,1.978,1.9777,1.9761,1.9798,1.9781,1.9785,1.9806,1.9843,1.9846,1.9849,1.9881,1.9889,1.9895,0,0,0,0,0,0,1.9757,1.9757,1.9748,1.978,1.9785,1.9785,1.9802,1.979,1.98,1.9796,1.9783,1.9784,1.9811,1.9811,1.9792,1.9841,1.9817,1.9822,1.9841,1.9848,1.9853,1.9853,1.9764,0,0,0,0,0,1.9768,1.9784,1.9783,1.9811,1.9814,1.9808,1.9816,1.9808,1.9812,1.9814,1.9813,1.9818,1.9831,1.9839,1.985,1.9884,1.9884,1.99,1.9906,1.9911,1.9915,1.9933,1.994,1.9862,1.9862,1.9862,0,0,1.9789,1.9791,1.9802,1.9817,1.982,1.9837,1.981,1.9828,1.984,1.9817,1.9841,1.984,1.9844,1.9874,1.9887,1.9875,1.9936,1.9915,1.9919,1.992,1.9937,1.9944,1.9951,1.9864,1.9863,1.9863,0,0,1.9837,1.984,1.9864,1.9868,1.9874,1.987,1.9876,1.9878,1.9877,1.9901,1.9884,1.9898,1.992,1.9924,1.9929,1.9979,1.9965,1.9983,2.0013,2.0031,2.0038,2.0043,2.0061,2.0068,1.9987,1.9987,1.9987,0,1.9862,1.9887,1.9878,1.9898,1.9905,1.9886,1.991,1.9914,1.9923,1.9928,1.9915,1.9943,1.9944,1.9975,1.9987,1.9992,1.9998,1.9983,2.0038,2.0043,2.0048,2.0065,2.0072,1.9989,1.9989,1.9989,1.9989,0,1.9919,1.9936,1.9955,1.9966,1.9975,1.9997,1.999,2.0,1.9992,1.9989,2.0014,2.0015,2.0027,2.0033,2.0025,2.0063,2.0055,2.004,2.0016,2.0058,2.0074,2.008,1.9992,1.9992,1.9991,1.999,0,0,1.9984,1.9991,1.9998,2.0003,2.0008,2.0022,2.0043,2.0055,2.0065,2.0072,2.0089,2.0109,2.0095,2.01,2.0092,2.0108,2.0149,2.0091,2.0091,2.0102,2.0191,2.0203,2.0211,2.014,2.0141,2.0142,2.0191,0,2.0032,2.0069,2.0062,2.0098,2.0114,2.0097,2.0116,2.0121,2.0119,2.0132,2.013,2.0144,2.0125,2.0128,2.0143,2.0141,2.0166,2.0137,2.0155,2.0156,2.0155,2.0219,2.0231,2.0278,2.0197,2.0198,2.0199,0,2.0091,2.0103,2.0141,2.0145,2.0152,2.0169,2.018,2.0193,2.0199,2.0196,2.0204,2.0193,2.0213,2.0189,2.0217,2.0197,2.0204,2.0204,2.0206,2.0207,2.018,2.0223,2.0293,2.03,2.0209,2.0208,2.0207,0,2.0136,2.016,2.0187,2.0192,2.0197,2.021,2.0212,2.0217,2.0225,2.0235,2.024,2.0252,2.0258,2.0267,2.0259,2.0242,2.0289,2.0264,2.0287,2.0288,2.0298,2.0297,2.037,2.0302,2.0302,2.0302,2.0302,0,2.019,2.0214,2.0207,2.0224,2.025,2.0241,2.0268,2.0268,2.0273,2.0289,2.0274,2.0289,2.0278,2.0292,2.0286,2.031,2.0313,2.0311,2.031,2.0313,2.0313,2.0317,2.0314,2.0304,2.0304,2.0303,2.0303,0,2.0244,2.024,2.0268,2.0272,2.0273,2.0293,2.0296,2.0311,2.0308,2.0328,2.0332,2.0328,2.0344,2.0338,2.0354,2.035,2.0381,2.0375,2.038,2.0378,2.0402,2.04,2.0481,2.0491,2.0416,2.0417,2.0417,0,2.0278,2.0297,2.0303,2.0313,2.0317,2.0334,2.0343,2.0335,2.0345,2.0353,2.0367,2.0382,2.0393,2.0419,2.0417,2.043,2.0423,2.0451,2.0425,2.0428,2.0424,2.0423,2.0425,2.0456,2.0457,2.0457,2.0458,0,2.034,2.0337,2.0352,2.0366,2.0377,2.0388,2.0396,2.0405,2.0398,2.0409,2.0426,2.0435,2.0453,2.0467,2.0479,2.048,2.0468,2.0466,2.0472,2.0476,2.0478,2.0478,2.0394,2.0464,2.0464,2.0463,2.0463,2.0463,2.0385,2.0401,2.0409,2.0425,2.0431,2.044,2.0455,2.0455,2.0469,2.0484,2.0478,2.0497,2.0503,2.0517,2.0521,2.0536,2.0525,2.0534,2.0536,2.0538,2.0542,2.0476,2.0538,2.0537,2.0537,2.0537,2.0537,0,2.0446,2.045,2.0466,2.048,2.0493,2.0482,2.0491,2.0502,2.052,2.0527,2.0539,2.0559,2.0573,2.0573,2.0586,2.0598,2.0593,2.0602,2.0601,2.0602,2.055,2.0544,2.0606,2.0606,2.0606,2.0606,2.0606,2.0606,2.0479,2.0506,2.0505,2.0536,2.0539,2.0559,2.0566,2.0574,2.058,2.0603,2.0615,2.0616,2.062,2.0634,2.0646,2.0646,2.0652,2.0663,2.066,2.0612,2.0605,2.0599,2.0593,2.0664,2.0664,2.0711,2.0711,2.0711]}]]